Petersburg, AK

2:29 AM AKDT on June 23, 2017 (GMT -0800)
Johnson Petersburg

Weather History for PAPG - February, 2015

Change the Weather History Date:

Sunday, February 22, 2015

  Actual Average Record
Temperature  
Mean Temperature 40 °F -  
Max Temperature 42 °F 36 °F 47 °F (1987)
Min Temperature 39 °F 28 °F 12 °F (1986)
Degree Days  
Heating Degree Days 24    
Moisture  
Dew Point 37 °F    
Average Humidity 84    
Maximum Humidity 87    
Minimum Humidity 81    
Precipitation  
Precipitation 0.01 in - - ()
Sea Level Pressure  
Sea Level Pressure 30.44 in    
Wind  
Wind Speed 1 mph (SW)    
Max Wind Speed 6 mph    
Max Gust Speed -    
Visibility 10 miles    
Events      
Averages and records for this station are not official NWS values.
T = Trace of Precipitation, MM = Missing Value Source: NWS Daily Summary

Daily Weather History Graph

Daily Weather History Graph

Search for Another Location

Airport or City:

Trip Planner

Search our weather history database for the weather conditions in past years. The results will help you decide how hot, cold, wet, or windy it might be!

Date:

Astronomy

Feb. 22, 2015 Rise Set
Actual Time 7:02 AM AKST 5:09 PM AKST
Civil Twilight 6:23 AM AKST 5:48 PM AKST
Nautical Twilight 5:39 AM AKST 6:32 PM AKST
Astronomical Twilight 4:55 AM AKST 7:16 PM AKST
Moon 8:26 AM AKST (2/22) 10:59 PM AKST (2/22)
Length of Visible Light 11h 24m
Length of Day
10h 06m
Waxing Crescent, 21% of the Moon is Illuminated
Feb 22
Waxing Crescent
Feb 25
First Quarter
Mar 5
Full
Mar 13
Last Quarter
Mar 20
New

Hourly Weather History & Observations

Time (AKST) Temp. Windchill Dew Point Humidity Pressure Visibility Wind Dir Wind Speed Gust Speed Precip Events Conditions
12:16 AM 39.2 °F - 33.8 °F 81% 30.48 in 10.0 mi Calm Calm - N/A   Overcast
1:36 AM 39.2 °F - 33.8 °F 81% 30.48 in 10.0 mi Calm Calm - N/A   Overcast
2:16 AM 39.2 °F - 33.8 °F 81% 30.47 in 10.0 mi Calm Calm - N/A   Overcast
2:36 AM 39.2 °F - 33.8 °F 81% 30.47 in 10.0 mi Calm Calm - N/A   Overcast
3:36 AM 39.2 °F - 35.6 °F 87% 30.46 in 10.0 mi Calm Calm - N/A   Overcast
3:56 AM 39.2 °F - 33.8 °F 81% 30.46 in 10.0 mi Calm Calm - N/A   Overcast
4:16 AM 39.2 °F - 33.8 °F 81% 30.46 in 10.0 mi Calm Calm - N/A   Overcast
4:56 AM 39.2 °F - 35.6 °F 87% 30.46 in 10.0 mi Calm Calm - N/A   Overcast
5:16 AM 39.2 °F - 33.8 °F 81% 30.46 in 10.0 mi Calm Calm - N/A   Overcast
5:56 AM 39.2 °F 37.0 °F 33.8 °F 81% 30.45 in 10.0 mi WSW 3.5 mph - N/A   Overcast
6:36 AM 39.2 °F 37.0 °F 35.6 °F 87% 30.44 in 10.0 mi ESE 3.5 mph - N/A   Overcast
6:56 AM 39.2 °F 37.0 °F 35.6 °F 87% 30.44 in 10.0 mi East 3.5 mph - N/A   Overcast
7:16 AM 39.2 °F - 35.6 °F 87% 30.44 in 10.0 mi Calm Calm - N/A   Overcast
7:56 AM 39.2 °F - 35.6 °F 87% 30.46 in 10.0 mi Calm Calm - N/A   Overcast
8:16 AM 39.2 °F - 35.6 °F 87% 30.46 in 10.0 mi Calm Calm - N/A   Overcast
9:36 AM 39.2 °F 35.0 °F 35.6 °F 87% 30.47 in 9.0 mi West 5.8 mph - N/A   Overcast
9:56 AM 41.0 °F 39.0 °F 35.6 °F 81% 30.47 in 7.0 mi SSW 3.5 mph - N/A   Overcast
10:16 AM 42.8 °F 41.1 °F 37.4 °F 81% 30.47 in 7.0 mi WSW 3.5 mph - N/A   Overcast
10:36 AM 42.8 °F - 37.4 °F 81% 30.47 in 7.0 mi Calm Calm - N/A   Overcast
10:56 AM 41.0 °F - 37.4 °F 87% 30.47 in 10.0 mi Calm Calm - 0.01 in   Overcast
11:16 AM 41.0 °F - 35.6 °F 81% 30.46 in 10.0 mi Calm Calm - N/A   Overcast
11:56 AM 42.8 °F - 37.4 °F 81% 30.46 in 10.0 mi Calm Calm - N/A   Overcast
12:56 PM 42.8 °F - 37.4 °F 81% 30.45 in 10.0 mi Calm Calm - N/A   Overcast
1:16 PM 42.8 °F - 37.4 °F 81% 30.46 in 10.0 mi Calm Calm - N/A   Overcast
1:36 PM 42.8 °F - 37.4 °F 81% 30.45 in 10.0 mi Calm Calm - N/A   Overcast
1:56 PM 42.8 °F - 37.4 °F 81% 30.44 in 10.0 mi Calm Calm - N/A   Overcast
2:16 PM 42.8 °F - 37.4 °F 81% 30.45 in 10.0 mi Calm Calm - N/A   Overcast
2:36 PM 42.8 °F - 39.2 °F 87% 30.44 in 10.0 mi Calm Calm - N/A   Overcast
2:56 PM 42.8 °F - 39.2 °F 87% 30.44 in 10.0 mi Calm Calm - N/A   Overcast
3:16 PM 42.8 °F - 39.2 °F 87% 30.44 in 10.0 mi Calm Calm - N/A   Overcast
4:16 PM 42.8 °F - 39.2 °F 87% 30.43 in 10.0 mi Calm Calm - N/A   Overcast
4:56 PM 42.8 °F - 39.2 °F 87% 30.42 in 10.0 mi Calm Calm - N/A   Overcast
5:16 PM 42.8 °F - 39.2 °F 87% 30.43 in 10.0 mi Calm Calm - N/A   Overcast
6:16 PM 42.8 °F - 39.2 °F 87% 30.43 in 10.0 mi Calm Calm - N/A   Overcast
6:36 PM 42.8 °F - 39.2 °F 87% 30.43 in 10.0 mi Calm Calm - N/A   Overcast
6:56 PM 42.8 °F - 39.2 °F 87% 30.43 in 10.0 mi Calm Calm - N/A   Overcast
7:16 PM 42.8 °F - 37.4 °F 81% 30.43 in 10.0 mi Calm Calm - N/A   Overcast
8:16 PM 42.8 °F - 39.2 °F 87% 30.42 in 10.0 mi Calm Calm - N/A   Overcast
8:36 PM 42.8 °F - 39.2 °F 87% 30.42 in 10.0 mi Calm Calm - N/A   Overcast
8:56 PM 42.8 °F 41.1 °F 39.2 °F 87% 30.42 in 10.0 mi WSW 3.5 mph - N/A   Overcast
9:16 PM 42.8 °F 41.1 °F 39.2 °F 87% 30.41 in 10.0 mi SW 3.5 mph - N/A   Overcast
9:56 PM 42.8 °F - 39.2 °F 87% 30.41 in 10.0 mi Calm Calm - N/A   Overcast
10:36 PM 42.8 °F - 39.2 °F 87% 30.40 in 10.0 mi Calm Calm - N/A   Overcast
11:16 PM 42.8 °F - 39.2 °F 87% 30.38 in 10.0 mi Calm Calm - N/A   Overcast
11:36 PM 42.8 °F - 37.4 °F 81% 30.38 in 10.0 mi Calm Calm - N/A   Overcast